Volver al catálogo

LES 2 AKM

ActivoHEO
NORAD 2529·ROCKET BODY·🇺🇸 United States

Lanzado May 6, 1965 desde Cape Canaveral Space Force Station

Loading…

Próximos Pases (próximas 24 horas)

TLE

ActualizadoSource: Space-Track

Época: Sep 11, 2026, 11:28 UTC

1 02529U 65034D   26254.47793271 -.00000052  00000-0  00000-0 0  9993
2 02529  32.1993 333.7947 3965851 126.8938 276.4061  4.64839200 24511

Sigue LES 2 AKM en tiempo real con AllMySat

Download on the App Store